Regional Weather Roundup
Issued by NWS Boston, MA

Home | Current Version | Previous Version | Text Only | Print | Product List | Glossary On
Versions: 1 2 3 4 5 6 7 8 9 10 11 12 13 14 15 16 17 18 19 20 21 22 23 24 25 26 27 28 29 30 31 32 33 34 35 36 37 38 39 40 41 42 43 44 45 46 47 48 49 50
000
ASUS41 KBOX 260910
RWRBOX

REGIONAL WEATHER ROUNDUP
NATIONAL WEATHER SERVICE TAUNTON MA
400 AM EST MON JAN 26 2015

NOTE:  "FAIR" INDICATES FEW OR NO CLOUDS BELOW 12,000 FEET WITH NO
SIGNIFICANT WEATHER AND/OR OBSTRUCTIONS TO VISIBILITY.  THE FOLLOWING
OBSERVATION LOCATIONS DO NOT REPORT PRESENT WEATHER...PROVINCETOWN...
SMITHFIELD...BLOCK ISLAND...KEENE...AND OXFORD.

MAZALL-261000-
EASTERN MASSACHUSETTS

CITY           SKY/WX    TMP DP  RH WIND       PRES   REMARKS
BOSTON         CLOUDY    13  -1  54 N7        30.12R WCI   3
BEVERLY        MOCLDY    10  -3  55 NW6       30.11R WCI   0
LAWRENCE       MOCLDY     9  -4  55 N6        30.12R WCI  -1
BEDFORD        MOCLDY    10  -3  55 N5        30.09R WCI   2
BLUE HILL        N/A     11   0  61 N9        30.03R WCI  -2
NORWOOD        MOCLDY    14  -2  49 N7        30.10R WCI   4
MARSHFIELD     MOCLDY    21  10  63 N6        30.11S WCI  14
PLYMOUTH       MOCLDY    19   5  54 N12       30.08R WCI   7
TAUNTON        MOCLDY    19   1  45 N7        30.08R WCI  10
NEW BEDFORD    MOCLDY    20   4  50 N10       30.06S WCI   9
$$

MAZALL-261000-
CAPE COD AND THE ISLANDS

CITY           SKY/WX    TMP DP  RH WIND       PRES   REMARKS
FALMOUTH       CLOUDY    23  12  63 N12       30.06S WCI  12
HYANNIS        MOCLDY    25  15  66 NE10      30.05R WCI  15
CHATHAM        MOCLDY    25  16  68 VRB3      30.07R
PROVINCETOWN   MOCLDY    25  16  68 N10       30.09R WCI  15
NANTUCKET      CLOUDY    27  16  63 N16       30.05R WCI  15
MARTHAS VNYRD  MOCLDY    23  10  57 NE12      30.06R WCI  12
$$

MAZALL-261000-
CENTRAL AND WESTERN MASSACHUSETTS

CITY           SKY/WX    TMP DP  RH WIND       PRES   REMARKS
WORCESTER      MOCLDY    11  -1  58 N6        30.00R WCI   1
FITCHBURG      MOCLDY    12  -2  53 N3        30.08R
ORANGE         MOCLDY    10  -2  58 N7        30.07R WCI  -1
SPRINGFIELD    MOCLDY    13   1  58 N5        30.07R WCI   5
WESTFIELD      MOCLDY    14   1  56 E3        30.07R
NORTH ADAMS    MOCLDY     8   1  73 CALM      30.06S
PITTSFIELD     MOCLDY     9   0  67 CALM      29.97F
$$

RIZALL-261000-
RHODE ISLAND

CITY           SKY/WX    TMP DP  RH WIND       PRES   REMARKS
PROVIDENCE     MOCLDY    19   6  57 NE13      30.08S WCI   6
NEWPORT        FAIR      21   6  52 NE12      30.06R WCI   9
BLOCK ISLAND   CLOUDY    25   7  46 NE12G17   30.03S WCI  14
SMITHFIELD     CLOUDY    16   0  48 NE8       30.04S WCI   5
WESTERLY       CLOUDY    22   6  50 NE7       30.06R WCI  13
$$

CTZALL-261000-
CONNECTICUT

CITY           SKY/WX    TMP DP  RH WIND       PRES   REMARKS
BRADLEY INTL   CLOUDY    17   2  51 N10       30.06S WCI   5
HARTFORD       CLOUDY    18   5  57 N13       30.08R WCI   5
BRIDGEPORT     CLOUDY    23   7  50 NE10      30.05F WCI  12
DANBURY        CLOUDY    19   2  47 NE6       30.04S WCI  11
GROTON         CLOUDY    22   5  48 NE6       30.06R WCI  14
NEW HAVEN      CLOUDY    22   7  52 N9        30.05S WCI  12
CHESTER        CLOUDY    21   7  53 NE6       30.03S WCI  14
MERIDEN        CLOUDY    20   5  52 N10       30.06R WCI   9
WILLIMANTIC    CLOUDY    19   4  51 N6        30.06S WCI  11
OXFORD         CLOUDY    18   0  45 NE3       30.00S
$$

MEZ002-015-021-024-NHZ003-005-008-011-012-014-VTZ005-008-261000-
NORTHERN NEW ENGLAND

CITY           SKY/WX    TMP DP  RH WIND       PRES   REMARKS
PORTLAND ME    PTCLDY     7  -5  57 N5        30.10S WCI  -2
BANGOR ME      CLEAR      3  -7  63 W7        30.09R WCI  -9
CONCORD NH     PTCLDY     6  -5  60 NW5       30.09R WCI  -3
MANCHESTER NH  CLOUDY     8  -4  58 NW9       30.09R WCI  -5
NASHUA NH        N/A     10  -4  53 N8        30.11R WCI  -2
PORTSMOUTH NH  CLOUDY     8  -5  57 W5        30.10R WCI  -1
JAFFREY NH     MOCLDY     7  -4  60 CALM      30.02R
KEENE NH       MOCLDY     9  -2  61 N8        30.08R WCI  -4
BURLINGTON VT  PTCLDY     0  -7  72 NE5       30.15R WCI -10
MT. WASHINGTON MOCLDY    -4 -15  59 NW37        N/A  WCI -33
$$

NYZ052-076-261000-
EASTERN NEW YORK

CITY           SKY/WX    TMP DP  RH WIND       PRES   REMARKS
ALBANY         CLOUDY    10  -1  61 N6        30.10F WCI   0
NEW YORK CITY  CLOUDY    25   9  50 NE16      30.03R WCI  12
$$

ANZALL-261000-
MARINE OBSERVATIONS

STATION/POSITION TIME  TEMP    WIND        PRES    VSBY  WAVE
                       AIR SEA DIR/SP/G                  HT/PER
                 (UTC) (F)     (DEG/KT/KT) (MB)    (MI)  (FT/S)
BOSTON BUOY      0850   18 40  350/ 12/ 16 1019.2R         3/ 4
BUZZARDS BAY     0800           20/ 16/ 18 1018.0R
NANTUCKET SOUND  0850   27 35   20/ 16/ 19 1017.4R         3/ 4
MASS BAY-STELLWA 0804   20 42  350/ 17/ 21   N/A    1 7/8  3/ 5
ISLE OF SHOALS   0900   13     360/ 10/ 12 1018.9R
S OF BLOCK IS    0808      45                N/A           5/11
$$

......................KEY.........................
  SKY/WX - SKY CONDITION/PRESENT WEATHER
  TMP    - TEMPERATURE IN FAHRENHEIT
  DWPT   - DEWPOINT IN FAHRENHEIT
  RH     - RELATIVE HUMIDITY IN PERCENT
  WIND   - DIRECTION AND SPEED IN MPH
  PRES   - MEAN SEA LEVEL PRESSURE IN INCHES OF HG
  WCI    - WIND CHILL INDEX
  VSB    - VISIBILITY IN MILES
  HX     - HEAT INDEX
  TC     - TEMPERATURE IN CELSIUS
  VRB    - VARIABLE WIND DIRECTION
  N/A    - NOT AVAILABLE


USA.gov is the U.S. government's official web portal to all federal, state and local government web resources and services.